Simultaneous Nadir Overpasses (SNOs) Predictions

Prediction of SNOs between AQUA and METOP-B Satellite Orbit:

Table of predicted SNOs for the next 14.0 days since TLE Epoch: 7/12/2019
Index Date (AQUA) Time (AQUA) Lat,Lon (AQUA) SZA (AQUA ) Date (METOP-B) Time (METOP-B) Lat,Lon (METOP-B) SZA (METOP-B ) Distance(km) Time Diff (sec)
1 07/15/2019 07:34:51 -73.84,-119.49 127.65 07/15/2019 07:34:14 -73.84,-119.46 127.64 0.83 37
2 07/15/2019 08:24:19 73.90, 48.02 52.42 07/15/2019 08:24:53 73.89, 47.99 52.41 1.22 34
3 07/18/2019 03:09:05 -73.84, -53.04 127.19 07/18/2019 03:08:36 -73.86, -53.01 127.16 3.10 29
4 07/18/2019 03:58:33 73.90, 114.46 52.89 07/18/2019 03:59:15 73.91, 114.44 52.90 1.55 42
5 07/20/2019 22:43:19 -73.84, 13.39 126.67 07/20/2019 22:42:59 -73.83, 13.33 126.67 2.27 20
6 07/20/2019 23:32:47 73.90,-179.11 53.41 07/20/2019 23:33:37 73.93,-179.11 53.43 2.73 50
7 07/23/2019 17:27:57 73.39, -86.85 53.40 07/23/2019 17:26:48 73.37, -88.67 53.47 57.96 69
8 07/23/2019 18:17:32 -73.85, 79.81 126.10 07/23/2019 18:17:20 -73.85, 79.78 126.10 1.11 12
9 07/23/2019 19:07:00 73.91,-112.69 53.98 07/23/2019 19:07:58 73.94,-112.66 54.00 3.39 58
10 07/26/2019 13:02:17 73.72, -21.11 54.36 07/26/2019 13:01:04 73.68, -21.54 54.35 14.22 73
11 07/26/2019 13:51:46 -73.87, 146.22 125.48 07/26/2019 13:51:42 -73.86, 146.22 125.48 0.35 4




NCC Satellite Simultaneous Nadir Overpasses (SNOs) Prediction Service
